TAM3311 SBJV-SBSP

Flight info

Callsign TAM3311
Flight time 0h 39m
Altitude 29000
Route DULIA UM400 KOXAG UM540 ANISE
Aircraft A319/M-SDE3FGHIRWY/LB1

Departure

Time 2026-05-07 19:35
Airport Lauro Carneiro de Loyola Airport (SBJV)

Arrival

Time 2026-05-07 20:15
Airport Congonhas–Deputado Freitas Nobre Airport (SBSP)
Time Latitude Longitude Altitude Speed Heading
2026-05-07 19:14 -26.22381 -48.80267 21 ft 0 kts 129°
2026-05-07 19:15 -26.22381 -48.80268 21 ft 0 kts 129°
2026-05-07 19:27 -26.22378 -48.80272 22 ft 3 kts 129°
2026-05-07 19:27 -26.22366 -48.80288 22 ft 3 kts 129°
2026-05-07 19:28 -26.22354 -48.80305 21 ft 3 kts 110°
2026-05-07 19:28 -26.22354 -48.80322 21 ft 0 kts 38°
2026-05-07 19:29 -26.22354 -48.80323 21 ft 0 kts 38°
2026-05-07 19:31 -26.22354 -48.80322 21 ft 0 kts 38°
2026-05-07 19:31 -26.22342 -48.80313 23 ft 4 kts 38°
2026-05-07 19:31 -26.22306 -48.80281 23 ft 9 kts 38°
2026-05-07 19:32 -26.22287 -48.80218 21 ft 11 kts 124°
2026-05-07 19:32 -26.22328 -48.80152 21 ft 9 kts 113°
2026-05-07 19:32 -26.22340 -48.80101 21 ft 12 kts 103°
2026-05-07 19:32 -26.22344 -48.80035 22 ft 4 kts 47°
2026-05-07 19:33 -26.22339 -48.80030 22 ft 2 kts 42°
2026-05-07 19:33 -26.22317 -48.80009 23 ft 8 kts 39°
2026-05-07 19:33 -26.22230 -48.80036 24 ft 18 kts 308°
2026-05-07 19:33 -26.22167 -48.80125 25 ft 24 kts 309°
2026-05-07 19:34 -26.22039 -48.80279 23 ft 5 kts 313°
2026-05-07 19:34 -26.22052 -48.80287 25 ft 2 kts 121°
2026-05-07 19:34 -26.22054 -48.80284 25 ft 0 kts 123°
2026-05-07 19:34 -26.22078 -48.80245 25 ft 35 kts 127°
2026-05-07 19:35 -26.22431 -48.79758 25 ft 124 kts 129°
2026-05-07 19:35 -26.23090 -48.78835 288 ft 163 kts 128°
2026-05-07 19:35 -26.23831 -48.77911 925 ft 162 kts 135°
2026-05-07 19:35 -26.24698 -48.76974 1138 ft 185 kts 131°
2026-05-07 19:36 -26.25556 -48.75804 1421 ft 207 kts 125°
2026-05-07 19:36 -26.26456 -48.74466 1749 ft 230 kts 124°
2026-05-07 19:36 -26.27467 -48.72958 2144 ft 255 kts 125°
2026-05-07 19:36 -26.28580 -48.71326 2781 ft 271 kts 126°
2026-05-07 19:37 -26.29753 -48.69647 3625 ft 278 kts 127°
2026-05-07 19:37 -26.30969 -48.67938 4457 ft 286 kts 127°
2026-05-07 19:37 -26.32038 -48.66044 5230 ft 292 kts 105°
2026-05-07 19:37 -26.32142 -48.63822 6056 ft 288 kts 71°
2026-05-07 19:38 -26.31207 -48.61917 6923 ft 280 kts 43°
2026-05-07 19:38 -26.29764 -48.60495 7847 ft 276 kts 32°
2026-05-07 19:38 -26.28183 -48.59284 8758 ft 277 kts 31°
2026-05-07 19:38 -26.26795 -48.57761 9608 ft 285 kts 48°
2026-05-07 19:39 -26.25505 -48.56078 10258 ft 292 kts 43°
2026-05-07 19:39 -26.24059 -48.54374 10557 ft 311 kts 43°
2026-05-07 19:39 -26.23239 -48.53417 10853 ft 315 kts 43°
2026-05-07 19:39 -26.21697 -48.51619 11508 ft 320 kts 43°
2026-05-07 19:40 -26.20148 -48.49815 12166 ft 324 kts 43°
2026-05-07 19:40 -26.18586 -48.47996 12809 ft 328 kts 43°
2026-05-07 19:40 -26.17003 -48.46149 13440 ft 332 kts 43°
2026-05-07 19:40 -26.15403 -48.44280 14011 ft 335 kts 43°
2026-05-07 19:41 -26.13783 -48.42392 14564 ft 339 kts 44°
2026-05-07 19:41 -26.12146 -48.40487 15127 ft 342 kts 43°
2026-05-07 19:41 -26.10494 -48.38568 15700 ft 345 kts 43°
2026-05-07 19:41 -26.08826 -48.36633 16271 ft 348 kts 43°
2026-05-07 19:42 -26.07144 -48.34681 16845 ft 351 kts 43°
2026-05-07 19:42 -26.05472 -48.32745 17409 ft 354 kts 43°
2026-05-07 19:42 -26.03759 -48.30761 17992 ft 357 kts 43°
2026-05-07 19:42 -26.02032 -48.28760 18513 ft 360 kts 43°
2026-05-07 19:43 -26.00286 -48.26738 18963 ft 365 kts 43°
2026-05-07 19:43 -25.98515 -48.24687 19402 ft 370 kts 43°
2026-05-07 19:43 -25.96719 -48.22607 19828 ft 375 kts 43°
2026-05-07 19:43 -25.94898 -48.20498 20255 ft 381 kts 43°
2026-05-07 19:44 -25.93049 -48.18361 20674 ft 386 kts 43°
2026-05-07 19:44 -25.91176 -48.16194 21092 ft 391 kts 43°
2026-05-07 19:44 -25.89279 -48.14000 21514 ft 396 kts 43°
2026-05-07 19:44 -25.87357 -48.11780 21937 ft 401 kts 43°
2026-05-07 19:45 -25.85413 -48.09533 22353 ft 406 kts 42°
2026-05-07 19:45 -25.83444 -48.07258 22766 ft 411 kts 42°
2026-05-07 19:45 -25.81453 -48.04960 23183 ft 415 kts 42°
2026-05-07 19:45 -25.79439 -48.02635 23564 ft 420 kts 42°
2026-05-07 19:46 -25.77409 -48.00290 23920 ft 424 kts 43°
2026-05-07 19:46 -25.75357 -47.97920 24315 ft 427 kts 43°
2026-05-07 19:46 -25.73291 -47.95541 24720 ft 429 kts 42°
2026-05-07 19:46 -25.71211 -47.93150 25111 ft 432 kts 42°
2026-05-07 19:47 -25.69119 -47.90743 25502 ft 435 kts 43°
2026-05-07 19:47 -25.67017 -47.88319 25882 ft 437 kts 43°
2026-05-07 19:47 -25.64902 -47.85881 26266 ft 440 kts 43°
2026-05-07 19:47 -25.62777 -47.83436 26650 ft 442 kts 42°
2026-05-07 19:48 -25.60631 -47.80975 27018 ft 445 kts 42°
2026-05-07 19:48 -25.58472 -47.78505 27375 ft 448 kts 42°
2026-05-07 19:48 -25.56298 -47.76019 27724 ft 451 kts 42°
2026-05-07 19:48 -25.54141 -47.73548 28070 ft 453 kts 42°
2026-05-07 19:49 -25.51944 -47.71026 28431 ft 456 kts 42°
2026-05-07 19:49 -25.49733 -47.68488 28773 ft 460 kts 42°
2026-05-07 19:49 -25.47466 -47.65889 28886 ft 465 kts 42°
2026-05-07 19:49 -25.45224 -47.63323 28902 ft 465 kts 42°
2026-05-07 19:50 -25.40862 -47.58096 28899 ft 467 kts 50°
2026-05-07 19:50 -25.37718 -47.51810 28903 ft 468 kts 62°
2026-05-07 19:51 -25.34928 -47.45309 28903 ft 468 kts 62°
2026-05-07 19:51 -25.32121 -47.38826 28902 ft 468 kts 62°
2026-05-07 19:52 -25.29309 -47.32356 28909 ft 466 kts 62°
2026-05-07 19:52 -25.26511 -47.25896 28911 ft 465 kts 62°
2026-05-07 19:53 -25.23710 -47.19454 28907 ft 465 kts 62°
2026-05-07 19:53 -25.20916 -47.13028 28903 ft 464 kts 62°
2026-05-07 19:54 -25.18108 -47.06609 28898 ft 464 kts 62°
2026-05-07 19:54 -25.15065 -47.00406 28895 ft 461 kts 51°
2026-05-07 19:55 -25.12994 -46.97706 28518 ft 461 kts 42°
2026-05-07 19:55 -25.10532 -46.95430 27620 ft 461 kts 31°
2026-05-07 19:55 -25.07809 -46.93620 27068 ft 454 kts 26°
2026-05-07 19:55 -25.05090 -46.91864 26460 ft 451 kts 27°
2026-05-07 19:56 -25.02398 -46.90110 25879 ft 448 kts 27°
2026-05-07 19:56 -24.99735 -46.88358 25295 ft 444 kts 27°
2026-05-07 19:56 -24.97096 -46.86615 24717 ft 440 kts 27°
2026-05-07 19:56 -24.94480 -46.84888 24159 ft 436 kts 27°
2026-05-07 19:57 -24.91880 -46.83187 23633 ft 432 kts 26°
2026-05-07 19:57 -24.89179 -46.81963 23504 ft 410 kts 11°
2026-05-07 19:57 -24.86443 -46.81383 23412 ft 393 kts
2026-05-07 19:57 -24.83729 -46.80866 23165 ft 399 kts
2026-05-07 19:58 -24.80993 -46.80350 22904 ft 400 kts
2026-05-07 19:58 -24.78247 -46.79835 22645 ft 399 kts
2026-05-07 19:58 -24.75522 -46.79326 22385 ft 398 kts
2026-05-07 19:58 -24.72805 -46.78816 21958 ft 394 kts
2026-05-07 19:59 -24.70114 -46.78306 21491 ft 391 kts
2026-05-07 19:59 -24.67449 -46.77804 21025 ft 387 kts
2026-05-07 19:59 -24.64810 -46.77311 20558 ft 383 kts
2026-05-07 19:59 -24.62233 -46.76831 20096 ft 379 kts
2026-05-07 20:00 -24.59649 -46.76352 19630 ft 375 kts
2026-05-07 20:00 -24.57092 -46.75877 19167 ft 371 kts
2026-05-07 20:00 -24.54567 -46.75408 18703 ft 366 kts
2026-05-07 20:00 -24.52066 -46.74944 18238 ft 363 kts
2026-05-07 20:01 -24.49589 -46.74482 17704 ft 359 kts
2026-05-07 20:01 -24.47136 -46.74020 17168 ft 356 kts
2026-05-07 20:01 -24.44706 -46.73563 16639 ft 353 kts
2026-05-07 20:01 -24.42296 -46.73113 16121 ft 350 kts
2026-05-07 20:02 -24.39907 -46.72670 15606 ft 347 kts
2026-05-07 20:02 -24.37539 -46.72230 15102 ft 344 kts 10°
2026-05-07 20:02 -24.35191 -46.71792 14607 ft 341 kts 10°
2026-05-07 20:02 -24.32867 -46.71360 14134 ft 338 kts 10°
2026-05-07 20:03 -24.30552 -46.70929 13641 ft 335 kts 10°
2026-05-07 20:03 -24.28265 -46.70502 13127 ft 332 kts 10°
2026-05-07 20:03 -24.25999 -46.70079 12636 ft 328 kts 10°
2026-05-07 20:03 -24.23760 -46.69661 12159 ft 325 kts
2026-05-07 20:04 -24.21554 -46.69251 11481 ft 328 kts
2026-05-07 20:04 -24.19295 -46.68833 10769 ft 331 kts
2026-05-07 20:04 -24.16991 -46.68406 10132 ft 331 kts
2026-05-07 20:04 -24.14798 -46.67999 9902 ft 320 kts
2026-05-07 20:05 -24.12650 -46.67599 9740 ft 306 kts
2026-05-07 20:05 -24.10603 -46.67214 9609 ft 292 kts
2026-05-07 20:05 -24.08645 -46.66845 9476 ft 279 kts
2026-05-07 20:05 -24.06754 -46.66493 9353 ft 273 kts
2026-05-07 20:06 -24.04884 -46.66151 9231 ft 272 kts
2026-05-07 20:06 -24.03020 -46.65810 9105 ft 272 kts
2026-05-07 20:06 -24.01148 -46.65466 8978 ft 273 kts
2026-05-07 20:06 -23.99275 -46.65119 8850 ft 273 kts
2026-05-07 20:07 -23.97410 -46.64771 8722 ft 270 kts
2026-05-07 20:07 -23.95559 -46.64429 8593 ft 269 kts
2026-05-07 20:07 -23.93752 -46.64094 8471 ft 259 kts
2026-05-07 20:07 -23.92012 -46.63771 8345 ft 249 kts
2026-05-07 20:08 -23.90333 -46.63461 8273 ft 241 kts
2026-05-07 20:08 -23.88708 -46.63161 8155 ft 233 kts
2026-05-07 20:08 -23.87167 -46.62820 8037 ft 226 kts 15°
2026-05-07 20:08 -23.85763 -46.62119 7919 ft 219 kts 29°
2026-05-07 20:09 -23.84596 -46.61094 7798 ft 213 kts 43°
2026-05-07 20:09 -23.83670 -46.59862 7685 ft 205 kts 47°
2026-05-07 20:09 -23.82802 -46.58659 7506 ft 199 kts 47°
2026-05-07 20:10 -23.81094 -46.56315 6982 ft 196 kts 46°
2026-05-07 20:10 -23.80066 -46.55399 6693 ft 189 kts 23°
2026-05-07 20:10 -23.78817 -46.55071 6418 ft 185 kts 359°
2026-05-07 20:10 -23.77573 -46.55357 6139 ft 184 kts 336°
2026-05-07 20:11 -23.76501 -46.56064 5877 ft 182 kts 329°
2026-05-07 20:11 -23.75447 -46.56798 5611 ft 177 kts 329°
2026-05-07 20:11 -23.74424 -46.57507 5367 ft 171 kts 329°
2026-05-07 20:11 -23.73431 -46.58197 5128 ft 167 kts 329°
2026-05-07 20:12 -23.72462 -46.58869 4880 ft 163 kts 329°
2026-05-07 20:12 -23.71521 -46.59523 4644 ft 159 kts 329°
2026-05-07 20:12 -23.70599 -46.60163 4410 ft 155 kts 329°
2026-05-07 20:12 -23.69711 -46.60778 4202 ft 146 kts 329°
2026-05-07 20:13 -23.68891 -46.61346 4005 ft 136 kts 329°
2026-05-07 20:13 -23.68097 -46.61893 3815 ft 134 kts 329°
2026-05-07 20:13 -23.67326 -46.62426 3635 ft 132 kts 329°
2026-05-07 20:13 -23.66552 -46.62963 3450 ft 132 kts 329°
2026-05-07 20:14 -23.65782 -46.63504 3225 ft 131 kts 329°
2026-05-07 20:14 -23.65012 -46.64033 3008 ft 131 kts 330°
2026-05-07 20:14 -23.64240 -46.64565 2828 ft 131 kts 329°
2026-05-07 20:14 -23.63466 -46.65097 2664 ft 132 kts 330°
2026-05-07 20:15 -23.62753 -46.65588 2608 ft 98 kts 326°
2026-05-07 20:15 -23.62403 -46.65830 2603 ft 41 kts 328°
2026-05-07 20:15 -23.62216 -46.65959 2599 ft 18 kts 325°
2026-05-07 20:15 -23.62225 -46.66041 2600 ft 10 kts 200°
2026-05-07 20:16 -23.62289 -46.66015 2600 ft 10 kts 147°
2026-05-07 20:16 -23.62354 -46.65971 2600 ft 11 kts 147°
2026-05-07 20:16 -23.62423 -46.65923 2601 ft 12 kts 148°
2026-05-07 20:16 -23.62496 -46.65873 2602 ft 12 kts 147°
2026-05-07 20:17 -23.62522 -46.65858 2602 ft 2 kts 174°
2026-05-07 20:17 -23.62538 -46.65870 2601 ft 4 kts 226°
2026-05-07 20:17 -23.62552 -46.65895 2601 ft 5 kts 237°
2026-05-07 20:17 -23.62565 -46.65917 2601 ft 3 kts 237°
2026-05-07 20:18 -23.62571 -46.65927 2601 ft 2 kts 237°